Weather History for Lakeville, MN

Change the Weather History Date:

Friday, January 3, 2014

  Actual Average Record
Temperature  
Mean Temperature 5 °F -  
Max Temperature 26 °F 21 °F 42 °F (1962)
Min Temperature -16 °F 4 °F -20 °F (1979)
Degree Days  
Heating Degree Days 60    
Moisture  
Dew Point 2 °F    
Average Humidity 78    
Maximum Humidity 86    
Minimum Humidity 66    
Precipitation  
Precipitation 0.00 in - - ()
Sea Level Pressure  
Sea Level Pressure 29.83 in    
Wind  
Wind Speed 8 mph (South)    
Max Wind Speed 23 mph    
Max Gust Speed 32 mph    
Visibility 9 miles    
Events Snow    
Averages and records for this station are not official NWS values.
T = Trace of Precipitation, MM = Missing Value Source: NWS Daily Summary

Daily Weather History Graph

Daily Weather History Graph

Search for Another Location

Airport:

Trip Planner

Search our weather history database for the weather conditions in past years. The results will help you decide how hot, cold, wet, or windy it might be!

Date:

Astronomy

Jan. 03, 2014 Rise Set
Actual Time 7:49 AM CST 4:45 PM CST
Civil Twilight 7:16 AM CST 5:18 PM CST
Nautical Twilight 6:39 AM CST 5:55 PM CST
Astronomical Twilight 6:04 AM CST 6:30 PM CST
Moon 9:09 AM CST (1/3) 8:03 PM CST (1/3)
Length of Visible Light 10h 02m
Length of Day
8h 55m
Waxing Crescent, 8% of the Moon is Illuminated
Jan 3
Waxing Crescent
Jan 7
First Quarter
Jan 15
Full
Jan 23
Last Quarter
Jan 30
New

Hourly Weather History & Observations

Time (CST) Temp. Windchill Dew Point Humidity Pressure Visibility Wind Dir Wind Speed Gust Speed Precip Events Conditions
12:05 AM -14.8 °F - -18.4 °F 84% 30.34 in 10.0 mi Calm Calm - N/A   Clear
12:25 AM -14.8 °F - -18.4 °F 84% 30.34 in 10.0 mi Calm Calm - N/A   Clear
12:45 AM -16.6 °F - -20.2 °F 84% 30.34 in 10.0 mi Calm Calm - N/A   Clear
1:05 AM -13.0 °F - -18.4 °F 77% 30.34 in 10.0 mi Calm Calm - N/A   Clear
1:25 AM -13.0 °F - -18.4 °F 77% 30.32 in 10.0 mi Calm Calm - N/A   Clear
1:45 AM -14.8 °F - -20.2 °F 77% 30.31 in 10.0 mi Calm Calm - N/A   Clear
2:05 AM -14.8 °F -24.8 °F -18.4 °F 84% 30.31 in 10.0 mi South 3.5 mph - N/A   Unknown
2:25 AM -14.8 °F -27.2 °F -18.4 °F 84% 30.29 in 10.0 mi South 4.6 mph - N/A   Clear
2:45 AM -14.8 °F -24.8 °F -18.4 °F 84% 30.28 in 10.0 mi South 3.5 mph - N/A   Clear
3:05 AM -14.8 °F -27.2 °F -20.2 °F 77% 30.27 in 10.0 mi SSE 4.6 mph - N/A   Clear
3:25 AM -13.0 °F -25.1 °F -18.4 °F 77% 30.25 in 10.0 mi South 4.6 mph - N/A   Scattered Clouds
3:45 AM -13.0 °F -22.7 °F -18.4 °F 77% 30.23 in 10.0 mi SSE 3.5 mph - N/A   Scattered Clouds
4:05 AM -13.0 °F - -18.4 °F 77% 30.21 in 10.0 mi Calm Calm - N/A   Clear
4:25 AM -11.2 °F - -16.6 °F 77% 30.20 in 10.0 mi Calm Calm - N/A   Scattered Clouds
4:45 AM -11.2 °F -20.6 °F -16.6 °F 77% 30.18 in 10.0 mi ESE 3.5 mph - N/A   Scattered Clouds
5:05 AM -11.2 °F - -16.6 °F 77% 30.16 in 10.0 mi Calm Calm - N/A   Scattered Clouds
5:25 AM -9.4 °F - -14.8 °F 77% 30.15 in 10.0 mi Calm Calm - N/A   Mostly Cloudy
5:45 AM -2.2 °F -15.6 °F -9.4 °F 71% 30.13 in 10.0 mi South 6.9 mph - N/A   Mostly Cloudy
6:05 AM -0.4 °F -15.7 °F -7.6 °F 72% 30.12 in 10.0 mi South 9.2 mph - N/A   Overcast
6:25 AM -0.4 °F -16.7 °F -5.8 °F 78% 30.10 in 10.0 mi SSE 10.4 mph - N/A   Mostly Cloudy
6:45 AM 1.4 °F -15.3 °F -5.8 °F 72% 30.07 in 10.0 mi SSE 11.5 mph - N/A   Overcast
7:04 AM 1.4 °F -14.5 °F -5.8 °F 72% 30.06 in 10.0 mi SSE 10.4 mph 18.4 mph N/A   Scattered Clouds
7:25 AM 1.4 °F -16.1 °F -5.8 °F 72% 30.04 in 10.0 mi South 12.7 mph 18.4 mph N/A   Scattered Clouds
7:45 AM 1.4 °F -14.5 °F -5.8 °F 72% 30.03 in 10.0 mi South 10.4 mph 17.3 mph N/A   Overcast
8:04 AM 3.2 °F -14.6 °F -5.8 °F 66% 30.01 in 10.0 mi South 13.8 mph 19.6 mph N/A   Overcast
8:25 AM 3.2 °F -15.3 °F -5.8 °F 66% 29.99 in 10.0 mi SSE 15.0 mph 20.7 mph N/A   Overcast
8:45 AM 3.2 °F -14.6 °F -5.8 °F 66% 29.97 in 10.0 mi SSE 13.8 mph 17.3 mph N/A   Mostly Cloudy
9:04 AM 5.0 °F -12.3 °F -4.0 °F 66% 29.95 in 10.0 mi SSE 13.8 mph 18.4 mph N/A   Mostly Cloudy
9:25 AM 6.8 °F -11.8 °F -2.2 °F 67% 29.92 in 10.0 mi South 17.3 mph 23.0 mph N/A   Mostly Cloudy
9:45 AM 6.8 °F -11.3 °F -2.2 °F 67% 29.90 in 10.0 mi South 16.1 mph 21.9 mph N/A   Scattered Clouds
10:04 AM 6.8 °F -9.3 °F -0.4 °F 72% 29.89 in 10.0 mi South 12.7 mph 25.3 mph N/A   Scattered Clouds
10:25 AM 8.6 °F -7.0 °F 1.4 °F 73% 29.86 in 10.0 mi South 12.7 mph 21.9 mph N/A   Scattered Clouds
10:45 AM 8.6 °F -9.5 °F 1.4 °F 73% 29.84 in 10.0 mi South 17.3 mph 26.5 mph N/A   Mostly Cloudy
11:04 AM 10.4 °F -7.2 °F 3.2 °F 73% 29.82 in 10.0 mi South 17.3 mph 23.0 mph N/A   Mostly Cloudy
11:25 AM 10.4 °F -4.1 °F 3.2 °F 73% 29.80 in 10.0 mi South 11.5 mph 24.2 mph N/A   Overcast
11:45 AM 12.2 °F -5.8 °F 6.8 °F 79% 29.78 in 7.0 mi South 19.6 mph 31.1 mph N/A   Overcast
12:05 PM 12.2 °F -4.8 °F 8.6 °F 85% 29.76 in 3.0 mi South 17.3 mph 27.6 mph N/A   Haze
12:25 PM 12.2 °F -7.1 °F 8.6 °F 85% 29.73 in 2.5 mi South 23.0 mph 31.1 mph N/A   Haze
12:44 PM 12.2 °F -3.1 °F 8.6 °F 85% 29.71 in 3.0 mi South 13.8 mph 21.9 mph N/A   Haze
1:05 PM 14.0 °F -3.0 °F 10.4 °F 86% 29.69 in 1.8 mi South 18.4 mph 23.0 mph N/A   Overcast
1:25 PM 14.0 °F -0.8 °F 10.4 °F 86% 29.67 in 1.8 mi South 13.8 mph 21.9 mph N/A Snow Light Snow
1:45 PM 15.8 °F 0.9 °F 10.4 °F 79% 29.66 in 2.5 mi South 15.0 mph 25.3 mph N/A   Overcast
2:05 PM 15.8 °F -0.2 °F 10.4 °F 79% 29.65 in 3.0 mi South 17.3 mph 32.2 mph N/A   Haze
2:25 PM 17.6 °F 3.2 °F 12.2 °F 79% 29.63 in 4.0 mi South 15.0 mph 20.7 mph N/A   Haze
2:45 PM 17.6 °F 3.7 °F 12.2 °F 79% 29.62 in 3.0 mi South 13.8 mph 21.9 mph N/A   Overcast
3:05 PM 17.6 °F 3.2 °F 12.2 °F 79% 29.61 in 5.0 mi South 15.0 mph 29.9 mph N/A   Overcast
3:25 PM 17.6 °F 2.2 °F 12.2 °F 79% 29.59 in 5.0 mi South 17.3 mph 26.5 mph N/A   Haze
3:45 PM 17.6 °F 3.7 °F 12.2 °F 79% 29.59 in 7.0 mi South 13.8 mph 25.3 mph N/A   Mostly Cloudy
4:05 PM 17.6 °F 2.7 °F 12.2 °F 79% 29.59 in 10.0 mi South 16.1 mph 23.0 mph N/A   Mostly Cloudy
4:25 PM 19.4 °F 5.0 °F 14.0 °F 80% 29.58 in 10.0 mi South 16.1 mph 21.9 mph N/A   Mostly Cloudy
4:45 PM 19.4 °F 6.6 °F 14.0 °F 80% 29.57 in 10.0 mi South 12.7 mph - N/A   Overcast
5:05 PM 19.4 °F 7.2 °F 14.0 °F 80% 29.57 in 10.0 mi South 11.5 mph 19.6 mph N/A   Mostly Cloudy
5:25 PM 19.4 °F 7.9 °F 14.0 °F 80% 29.55 in 10.0 mi South 10.4 mph 17.3 mph N/A   Scattered Clouds
5:45 PM 19.4 °F 6.0 °F 14.0 °F 80% 29.55 in 10.0 mi South 13.8 mph 19.6 mph N/A   Scattered Clouds
6:05 PM 19.4 °F 6.6 °F 14.0 °F 80% 29.56 in 10.0 mi South 12.7 mph - N/A   Clear
6:25 PM - - 15.8 °F N/A% 29.55 in 10.0 mi South 12.7 mph - N/A   Clear
6:45 PM 19.4 °F 7.2 °F 14.0 °F 80% 29.54 in 10.0 mi South 11.5 mph 17.3 mph N/A   Clear
7:05 PM 19.4 °F 7.9 °F 15.8 °F 86% 29.54 in 10.0 mi South 10.4 mph - N/A   Clear
7:25 PM 19.4 °F 6.6 °F 15.8 °F 86% 29.53 in 10.0 mi South 12.7 mph 18.4 mph N/A   Clear
7:45 PM 21.2 °F 8.9 °F 15.8 °F 80% 29.52 in 10.0 mi South 12.7 mph 20.7 mph N/A   Clear
8:05 PM 21.2 °F 9.5 °F 15.8 °F 80% 29.50 in 10.0 mi South 11.5 mph - N/A   Clear
8:25 PM 21.2 °F 10.1 °F 15.8 °F 80% 29.50 in 10.0 mi South 10.4 mph 17.3 mph N/A   Clear
8:45 PM 21.2 °F 8.9 °F 17.6 °F 86% 29.49 in 10.0 mi South 12.7 mph 18.4 mph N/A   Scattered Clouds
9:05 PM 23.0 °F 9.6 °F 17.6 °F 80% 29.48 in 10.0 mi South 16.1 mph 21.9 mph N/A   Mostly Cloudy
9:25 PM 24.8 °F 12.4 °F 19.4 °F 80% 29.48 in 10.0 mi South 15.0 mph 20.7 mph N/A   Overcast
9:44 PM 24.8 °F 12.9 °F 19.4 °F 80% 29.47 in 10.0 mi SSW 13.8 mph 20.7 mph N/A   Overcast
10:05 PM 24.8 °F 13.4 °F 19.4 °F 80% 29.46 in 10.0 mi South 12.7 mph 18.4 mph N/A   Scattered Clouds
10:25 PM 24.8 °F 14.0 °F 19.4 °F 80% 29.47 in 10.0 mi SSW 11.5 mph 21.9 mph N/A   Mostly Cloudy
10:44 PM 26.6 °F 13.8 °F 19.4 °F 74% 29.46 in 10.0 mi South 17.3 mph 24.2 mph N/A   Overcast
11:05 PM 26.6 °F 17.5 °F 21.2 °F 80% 29.46 in 7.0 mi South 9.2 mph 20.7 mph N/A Snow Light Snow
11:25 PM 26.6 °F 16.8 °F 21.2 °F 80% 29.45 in 5.0 mi SSW 10.4 mph - N/A Snow Light Snow
11:45 PM 26.6 °F 14.3 °F 21.2 °F 80% 29.43 in 4.0 mi South 16.1 mph 20.7 mph N/A Snow Light Snow